Content
SEND FEEDBACK

Daily
Averages
Monthly
Summary
United States of America

ST. LOUIS, MISSOURI


Home > North America > United States > Missouri
Elevation: 535 feet     Latitude: 38 45N     Longitude: 090 22W

WEATHER
 
SELECT A DAY
Number of Records: 196,364;   Date Range: 1/1/95 - 7/26/14
 
SHARE

PRINT THIS DATA

[ ← Previous Day ]
WEATHER ALMANAC - MARCH 2, 2013
[ Next Day → ]
[ °C ]   °F
Weather ElementAverageHighLow
Temperature28.3 °F33.1 °F (1:54 pm)21 °F (11:54 pm)
Dewpoint18.3 °F21.9 °F (1:54 am)16 °F (4:54 pm)
Humidity66.9 %81 % (11:54 pm)52 % (3:54 pm)
Barometer30.26 in30.30 in (9:54 am)30.20 in (4:21 am)
Wind Speed9.3 mph13.8 mph (1:54 pm)
Wind Gust19.6 mph (1:54 pm)
Weather ElementAverage
Visibility9.5 mi
Wind DirectionWNW (294.8 °)

Weather ElementTotal
Precipitation---
Heating Degree Days38 (Base 65)
Averaged from 25 records on March 2, 2013
WEATHER CONDITIONS BREAKOUT
WIND DIRECTION BREAKOUT
WEATHER BY HOUR - MARCH 2, 2013
[ °C ]   °F
Local TimeTemperatureDewpointHumidityBarometerVisibilityWind DirectionWind SpeedGust SpeedPrecipitationEventsConditions
1:54 AM28.0 °F21.9 °F78 %30.24 in9.0 miNNW (330°)10.4 mph0.00 inSnowLight Snow
2:54 AM27.0 °F21.0 °F78 %30.23 in7.0 miNNW (340°)9.2 mph0.00 inOvercast
3:54 AM27.0 °F21.0 °F78 %30.23 in10.0 miNNW (340°)11.5 mph0.00 inOvercast
4:21 AM26.6 °F21.2 °F80 %30.20 in10.0 miNNW (330°)9.2 mphOvercast
4:54 AM26.6 °F19.4 °F74 %30.21 in10.0 miNNW (340°)9.2 mphOvercast
5:54 AM27.0 °F19.0 °F72 %30.25 in10.0 miNNW (330°)11.5 mphOvercast
6:54 AM27.0 °F18.0 °F69 %30.27 in10.0 miNNW (330°)11.5 mphOvercast
7:54 AM27.0 °F19.0 °F72 %30.29 in8.0 miNNW (340°)11.5 mphOvercast
8:54 AM28.9 °F21.0 °F72 %30.29 in6.0 miNW (320°)9.2 mph0.00 inSnowLight Snow
9:08 AM28.4 °F21.2 °F74 %30.26 in8.0 miNW (320°)10.4 mph0.00 inSnowLight Snow
9:54 AM28.9 °F19.0 °F67 %30.30 in10.0 miNNW (340°)12.7 mph0.00 inMostly Cloudy
10:54 AM30.0 °F18.0 °F61 %30.30 in10.0 miNNW (340°)11.5 mphOvercast
11:54 AM32.0 °F18.0 °F56 %30.29 in10.0 miNW (320°)10.4 mphMostly Cloudy
12:54 PM32.0 °F18.0 °F56 %30.27 in10.0 miNNW (330°)12.7 mphMostly Cloudy
1:54 PM33.1 °F18.0 °F54 %30.26 in10.0 miNNW (330°)13.8 mph19.6 mphMostly Cloudy
2:54 PM33.1 °F18.0 °F54 %30.25 in10.0 miNNW (330°)10.4 mphOvercast
3:54 PM33.1 °F17.1 °F52 %30.25 in10.0 miNNW (330°)9.2 mphOvercast
4:54 PM32.0 °F16.0 °F52 %30.26 in10.0 miWNW (290°)10.4 mphMostly Cloudy
5:54 PM30.0 °F16.0 °F56 %30.27 in10.0 miWNW (290°)8.1 mphScattered Clouds
6:54 PM28.0 °F16.0 °F61 %30.27 in10.0 miWest (280°)8.1 mphPartly Cloudy
7:54 PM27.0 °F17.1 °F66 %30.28 in10.0 miWest (280°)6.9 mphClear
8:54 PM27.0 °F16.0 °F63 %30.27 in10.0 miWNW (290°)8.1 mphClear
9:54 PM25.0 °F16.0 °F69 %30.27 in10.0 miWNW (300°)5.8 mphClear
10:54 PM21.9 °F16.0 °F78 %30.26 in10.0 miCalmClear
11:54 PM21.0 °F16.0 °F81 %30.26 in10.0 miCalmClear
Hourly data recorded from KSUS, located miles away from St. Louis, Missouri







STORIES FROM OUR PARTNERS